[[{"header":{"parameterUnit":"m.s-1","parameterCategory":1,"la1":30.2991,"la2":30.254,"lo1":-89.0895,"lo2":-89.0444,"dy":0.0017,"dx":0.0017,"nx":28,"ny":28,"refTime":"2025-08-22T09:00:00:Z","depth":0,"parameterNumber":2,"parameterNumberName":"U-component_of_WINDS"},"data":[0,0,0,0,0,0,0,0,0,0,0,0,0,0,0,0,0,0,0,0,0,0,0,0,0,0,0,0,0,0,0,0,0,0,0,0,0,0,0,0,0,0,0,0,0,0,0,0,0,0,0,0,0,0,0,0,0,0,2.3864,2.3863,0,2.3837,2.3836,2.3836,2.3751,2.3749,2.3747,2.3745,2.3718,2.3719,2.372,0,0,0,0,0,0,0,0,0,0,0,0,0,2.3842,2.3843,2.3864,2.3863,2.3863,2.3837,2.3836,2.3836,2.3751,2.3749,2.3746,2.3744,2.3717,2.3719,2.372,0,0,0,0,0,0,0,0,0,0,0,0,0,2.3837,2.3843,2.3864,2.3818,2.3813,2.3837,2.3836,2.3836,2.3752,2.3749,2.3746,2.3743,2.3717,2.3718,2.372,2.3786,0,0,2.3725,2.3725,0,0,0,0,0,0,0,0,2.3837,2.3838,2.3825,2.3821,2.3816,2.3794,2.3818,2.3819,2.3752,2.3775,2.3745,2.3742,2.3745,2.3744,2.3746,2.3785,2.3784,2.3725,2.3726,2.3726,2.3727,0,0,0,0,0,0,0,2.3838,2.3838,2.3853,2.3825,2.3819,2.3798,2.3794,2.3818,2.3776,2.3773,2.3767,2.3764,2.3742,2.3744,2.3744,2.3783,2.3725,2.3726,2.3727,2.3728,2.3873,2.3876,0,0,0,0,0,0,2.3845,2.3839,2.3854,2.3852,2.382,2.3801,2.3796,2.3804,2.3776,2.3769,2.3767,2.3761,2.3743,2.3743,2.3743,2.3816,2.3726,2.3728,2.3729,2.387,2.3873,2.3877,0,0,0,0,0,0,2.3844,2.3847,2.3855,2.3844,2.3843,2.3804,2.3813,2.3805,2.3807,2.3771,2.3764,2.3776,2.3741,2.3741,2.3775,2.3814,2.3729,2.373,2.3866,2.3871,2.3875,2.3965,0,0,0,0,0,0,2.3844,2.3847,2.3872,2.3845,2.3844,2.3888,2.3816,2.3806,2.3809,2.3801,2.3778,2.3772,2.3739,2.3774,2.3777,2.3815,2.3731,2.3863,2.3868,2.3874,2.3958,2.3972,2.3984,0,0,0,0,0,2.3844,2.3899,2.3874,2.3876,2.3875,2.3891,2.389,2.3851,2.3813,2.3837,2.3814,2.3773,2.381,2.3778,2.3781,2.382,2.386,2.3867,2.3873,2.3953,2.3969,2.3983,0,0,0,0,0,0,2.3932,2.3895,2.3866,2.3915,2.3907,2.3876,2.3906,2.387,2.3872,2.3864,2.3815,2.3811,2.3852,2.384,2.3804,2.3881,2.3828,2.3835,2.3887,2.3903,2.3915,2.3916,2.3732,0,0,0,0,0,2.3958,2.3974,2.394,2.3986,2.3983,2.3946,2.3951,2.3921,2.3911,2.3907,2.3887,2.3878,2.3887,2.3895,2.3902,2.3957,2.3949,2.3985,2.3998,2.4008,2.4015,2.404,2.4055,2.3898,2.3898,2.3898,0,0,2.401,2.3991,2.4004,2.4003,2.3993,2.401,2.3943,2.3965,2.3977,2.391,2.3941,2.3926,2.3913,2.3957,2.3976,2.3948,2.4056,2.4017,2.4025,2.4026,2.4048,2.4063,2.4077,2.3903,2.3902,2.3901,0,0,2.4113,2.4101,2.4137,2.4128,2.4114,2.4088,2.4097,2.4072,2.4059,2.4089,2.4039,2.4053,2.4071,2.4063,2.4061,2.416,2.4121,2.4164,2.4229,2.4255,2.4267,2.4278,2.4311,2.4323,2.4171,2.4171,2.4172,0,2.4179,2.4203,2.416,2.4184,2.4184,2.4125,2.416,2.4154,2.4143,2.4144,2.4113,2.4133,2.4121,2.4161,2.4185,2.4187,2.4194,2.4165,2.4269,2.4279,2.4288,2.4319,2.4332,2.4177,2.4176,2.4175,2.4175,0,2.4284,2.4301,2.4332,2.4321,2.4325,2.4355,2.4316,2.4326,2.4296,2.4273,2.4304,2.4286,2.4288,2.4296,2.4267,2.4332,2.4315,2.4278,2.4223,2.4309,2.4337,2.4349,2.4184,2.4182,2.4181,2.4179,0,0,2.4441,2.4406,2.4418,2.4411,2.4391,2.4403,2.443,2.4431,2.4438,2.4433,2.4453,2.4469,2.4434,2.4432,2.4402,2.4425,2.4502,2.4385,2.4383,2.4405,2.4569,2.4595,2.461,2.4476,2.4479,2.448,2.4569,0,2.4536,2.4579,2.4541,2.4591,2.4605,2.4549,2.4572,2.4561,2.4541,2.455,2.4528,2.4539,2.4493,2.4491,2.4511,2.4488,2.4534,2.4482,2.4493,2.4494,2.4495,2.4625,2.4653,2.4737,2.458,2.4582,2.4583,0,2.4653,2.4652,2.4703,2.4677,2.4681,2.4703,2.4699,2.4709,2.4696,2.4679,2.4677,2.464,2.4664,2.4612,2.4643,2.4608,2.4611,2.46,2.4602,2.46,2.4542,2.4623,2.4764,2.4776,2.4601,2.4599,2.4598,0,2.4759,2.477,2.4801,2.4798,2.477,2.4786,2.4775,2.4758,2.4761,2.4758,2.4759,2.476,2.476,2.4761,2.4725,2.4691,2.4759,2.4705,2.4745,2.4746,2.476,2.4759,2.49,2.4766,2.4766,2.4766,2.4766,0,2.4868,2.4901,2.4848,2.4867,2.4902,2.4858,2.4894,2.4877,2.4863,2.4877,2.4829,2.4844,2.4796,2.4806,2.4778,2.4806,2.4807,2.4794,2.4785,2.4796,2.4798,2.4796,2.4788,2.4769,2.4768,2.4768,2.4767,0,2.4992,2.4958,2.4988,2.4958,2.4951,2.4978,2.4952,2.4968,2.4945,2.4963,2.4965,2.4929,2.4937,2.4901,2.4904,2.4885,2.4927,2.491,2.4931,2.4925,2.4965,2.4961,2.5108,2.5124,2.4983,2.4984,2.4985,0,2.5062,2.5086,2.5058,2.5064,2.5055,2.5065,2.5067,2.5025,2.5029,2.5015,2.5032,2.5036,2.5037,2.5053,2.5026,2.5027,2.5008,2.506,2.5008,2.5018,2.5006,2.5004,2.5005,2.507,2.5072,2.5073,2.5074,0,2.519,2.5172,2.5176,2.5174,2.5177,2.5174,2.5168,2.5175,2.5129,2.5136,2.5143,2.5144,2.5146,2.515,2.5146,2.5134,2.5096,2.5091,2.51,2.511,2.512,2.5112,2.4957,2.5087,2.5086,2.5085,2.5084,2.5084,2.5287,2.5304,2.5287,2.5293,2.5283,2.5278,2.5291,2.5269,2.5274,2.5272,2.5247,2.5259,2.5243,2.5233,2.5225,2.5233,2.5209,2.5222,2.5225,2.5228,2.5234,2.5121,2.5233,2.5232,2.5232,2.5231,2.5231,0,2.5409,2.5395,2.5401,2.5393,2.5397,2.5362,2.5353,2.5359,2.5369,2.5358,2.536,2.5367,2.5371,2.5345,2.5344,2.5356,2.5338,2.5357,2.5354,2.5352,2.5258,2.5249,2.5371,2.5371,2.5371,2.5371,2.5371,2.5371,2.5474,2.55,2.548,2.5501,2.5487,2.5498,2.5495,2.549,2.548,2.5491,2.5493,2.5476,2.5458,2.5456,2.5457,2.5449,2.545,2.5474,2.546,2.5372,2.5359,2.5346,2.5337,2.5476,2.5476,2.5553,2.5554,2.5555]},{"header":{"parameterUnit":"m.s-1","parameterCategory":1,"la1":30.2991,"la2":30.254,"lo1":-89.0895,"lo2":-89.0444,"dy":0.0017,"dx":0.0017,"nx":28,"ny":28,"refTime":"2025-08-22T09:00:00:Z","depth":0,"parameterNumber":3,"parameterNumberName":"V-component_of_WINDS"},"data":[0,0,0,0,0,0,0,0,0,0,0,0,0,0,0,0,0,0,0,0,0,0,0,0,0,0,0,0,0,0,0,0,0,0,0,0,0,0,0,0,0,0,0,0,0,0,0,0,0,0,0,0,0,0,0,0,0,0,1.6394,1.6396,0,1.6581,1.6583,1.6585,1.6621,1.662,1.6618,1.6617,1.6809,1.6815,1.6822,0,0,0,0,0,0,0,0,0,0,0,0,0,1.6067,1.6073,1.6394,1.6396,1.6398,1.658,1.6583,1.6585,1.6622,1.662,1.6618,1.6616,1.6807,1.6815,1.6822,0,0,0,0,0,0,0,0,0,0,0,0,0,1.6227,1.6075,1.6393,1.6438,1.6444,1.658,1.6583,1.6586,1.6622,1.662,1.6617,1.6615,1.6804,1.6814,1.6823,1.6928,0,0,1.6853,1.6857,0,0,0,0,0,0,0,0,1.6218,1.6239,1.6429,1.6435,1.6442,1.6575,1.6538,1.6701,1.6622,1.6554,1.6617,1.6614,1.6733,1.6749,1.6789,1.6937,1.6945,1.6854,1.686,1.6864,1.6867,0,0,0,0,0,0,0,1.6207,1.6231,1.6468,1.6432,1.644,1.6449,1.6469,1.6569,1.6654,1.656,1.6563,1.6585,1.6736,1.6779,1.6793,1.6948,1.6854,1.6862,1.6868,1.6872,1.7188,1.719,0,0,0,0,0,0,1.6188,1.6222,1.6462,1.6473,1.6322,1.6456,1.6479,1.6535,1.6653,1.6669,1.6587,1.6586,1.6764,1.6782,1.68,1.6929,1.6864,1.6873,1.6879,1.7185,1.7188,1.7191,0,0,0,0,0,0,1.6181,1.6209,1.6454,1.6348,1.638,1.6464,1.6527,1.654,1.6583,1.6673,1.6688,1.6615,1.6763,1.6787,1.6895,1.6936,1.6878,1.6886,1.7182,1.7186,1.719,1.7187,0,0,0,0,0,0,1.6171,1.6206,1.6247,1.6349,1.6386,1.6547,1.6529,1.6545,1.6599,1.66,1.6703,1.6718,1.6763,1.688,1.6905,1.6948,1.6894,1.7179,1.7184,1.7189,1.7184,1.719,1.7196,0,0,0,0,0,1.6159,1.624,1.6249,1.6278,1.6439,1.6549,1.657,1.6619,1.6602,1.6644,1.6701,1.6715,1.6927,1.6891,1.6919,1.6966,1.7177,1.7183,1.7188,1.7181,1.7189,1.7196,0,0,0,0,0,0,1.6142,1.6254,1.6266,1.6382,1.6455,1.6555,1.6609,1.6626,1.6707,1.6704,1.6761,1.6784,1.6889,1.6938,1.6896,1.7071,1.7051,1.7062,1.7036,1.7044,1.705,1.7036,1.6902,0,0,0,0,0,1.6151,1.6231,1.6325,1.6418,1.6454,1.6525,1.6575,1.6606,1.6685,1.6716,1.6782,1.6858,1.6941,1.6995,1.7077,1.719,1.7213,1.7236,1.7242,1.7246,1.7256,1.7317,1.7328,1.721,1.721,1.721,0,0,1.6172,1.6243,1.629,1.6416,1.6477,1.6558,1.6551,1.6638,1.6698,1.673,1.6836,1.6886,1.6974,1.7085,1.7137,1.7129,1.7293,1.7254,1.7257,1.7264,1.7324,1.7335,1.7345,1.7214,1.7213,1.7213,0,0,1.6251,1.6313,1.6397,1.6457,1.6548,1.6594,1.6614,1.6711,1.6745,1.6852,1.6876,1.6948,1.7092,1.7153,1.7203,1.7301,1.7316,1.7326,1.7357,1.7416,1.7426,1.7434,1.7468,1.748,1.7335,1.7335,1.7335,0,1.6265,1.6389,1.6437,1.6522,1.6576,1.6606,1.6691,1.6747,1.6861,1.6897,1.6886,1.7064,1.7126,1.725,1.7274,1.7314,1.7337,1.7315,1.742,1.7429,1.7438,1.7471,1.7484,1.7335,1.7335,1.7335,1.7335,0,1.6401,1.6486,1.6542,1.6649,1.6709,1.6794,1.6854,1.6909,1.6934,1.698,1.7087,1.7162,1.7259,1.729,1.7316,1.7418,1.741,1.7409,1.7389,1.7449,1.7481,1.7494,1.7336,1.7336,1.7336,1.7336,0,0,1.6477,1.6608,1.6628,1.6676,1.6777,1.6844,1.6928,1.7021,1.7066,1.7143,1.7214,1.7333,1.7332,1.7388,1.7421,1.7472,1.7543,1.7465,1.7468,1.7476,1.7658,1.7658,1.7672,1.7553,1.7556,1.7558,1.765,0,1.6568,1.672,1.6764,1.6892,1.6969,1.6997,1.7071,1.714,1.7185,1.7257,1.7307,1.7389,1.7382,1.7416,1.7468,1.7523,1.758,1.7517,1.762,1.7623,1.7597,1.7689,1.769,1.7774,1.7663,1.7665,1.7667,0,1.6695,1.6772,1.6907,1.6995,1.703,1.7095,1.7183,1.7251,1.733,1.7359,1.742,1.7447,1.7534,1.7509,1.7629,1.7585,1.7629,1.7662,1.7667,1.7679,1.7649,1.7703,1.7802,1.7814,1.7687,1.7685,1.7684,0,1.6736,1.6874,1.6971,1.7011,1.7118,1.7162,1.7209,1.7285,1.7337,1.7414,1.7448,1.7533,1.758,1.7646,1.7694,1.7671,1.781,1.7789,1.7836,1.7835,1.7865,1.7863,1.7972,1.7893,1.7893,1.7893,1.7892,0,1.6833,1.6915,1.6991,1.7051,1.7141,1.7191,1.728,1.7327,1.7394,1.7463,1.7492,1.7556,1.7617,1.7689,1.7727,1.782,1.7842,1.7867,1.7876,1.7864,1.7861,1.7895,1.789,1.7896,1.7895,1.7895,1.7894,0,1.6896,1.695,1.7058,1.7148,1.7173,1.7236,1.7313,1.7372,1.7416,1.7503,1.7526,1.7596,1.7682,1.7737,1.7846,1.7872,1.7974,1.7981,1.7947,1.7952,1.7995,1.799,1.8131,1.8151,1.8058,1.8058,1.8059,0,1.6954,1.7017,1.7113,1.7161,1.7207,1.7285,1.7337,1.7388,1.7441,1.7533,1.758,1.7668,1.774,1.7875,1.7936,1.8019,1.8029,1.8072,1.8041,1.8027,1.8029,1.8024,1.803,1.8077,1.8078,1.8079,1.8079,0,1.7052,1.7075,1.715,1.7234,1.7295,1.7364,1.7432,1.747,1.7531,1.759,1.7677,1.7733,1.7843,1.7929,1.8017,1.8064,1.8082,1.8088,1.8103,1.8092,1.8069,1.8081,1.7961,1.8085,1.8084,1.8084,1.8083,1.8083,1.7115,1.7171,1.7246,1.7328,1.7384,1.7446,1.7505,1.7556,1.763,1.7723,1.7748,1.7838,1.7912,1.8032,1.808,1.8151,1.8146,1.8168,1.8174,1.8178,1.8179,1.8057,1.8167,1.8167,1.8167,1.8167,1.8167,0,1.7214,1.7263,1.7337,1.7431,1.7495,1.7504,1.7579,1.7632,1.7711,1.7779,1.7848,1.7947,1.803,1.8095,1.818,1.8224,1.8234,1.8244,1.8242,1.8252,1.8179,1.8157,1.8234,1.8234,1.8234,1.8234,1.8234,1.8234,1.7273,1.7368,1.7399,1.7521,1.7569,1.7658,1.77,1.7757,1.7811,1.792,1.7988,1.8029,1.8095,1.8184,1.826,1.8277,1.8306,1.8315,1.8333,1.8265,1.8257,1.825,1.823,1.8321,1.8321,1.84,1.8401,1.8401]}]]